Location: Quedlinburg
(51.7921°N, 11.1414°E)
Time: 20:49:53
(UTC+02:00)

RS-15 - Pass Details

Date: 14 March 2026
Orbit: 1893 x 2152 km, 64.8° (Epoch: 17 April)

Event Time Altitude Azimuth Distance (km) Brightness Sun altitude
Rises 19:05:55 0° 169° (S) 5,263 10.1 -8.2°
Reaches altitude 10° 19:09:41 10° 159° (SSE) 4,269 9.5 -8.8°
Maximum altitude 19:18:30 30° 104° (ESE) 2,991 8.5 -10.1°
Drops below altitude 10° 19:27:28 10° 50° (NE) 4,369 9.5 -11.5°
Sets 19:31:21 0° 40° (NE) 5,404 10.1 -12.1°
